Theta_e
315 318 320 318 317 315 314 314 314 314 314 313 314 314 315 314 312 313 312 313 314 314 315 315 314 313 313 313 313 312 313 313 312 312 312 311 311 311 312 312 311 311 311 310 309 309 309 309 308 308 308 307 306 306 304 303 302 301 301 300 300 300 299 299 298 298 297 297 297 296 297 297 296 296 295 295 294 294 294 294 293 293 293 293 293 293
314 316 318 317 315 314 314 314 313 314 313 313 314 315 314 314 313 312 312 313 313 313 314 314 314 313 313 313 312 312 312 313 313 312 312 312 311 311 311 312 312 312 312 311 310 308 308 308 308 308 307 307 306 305 304 303 302 301 301 301 300 299 299 299 299 298 298 297 297 297 297 296 296 295 295 295 294 294 294 293 293 292 293 293 293 293
316 316 316 314 313 313 313 313 313 314 314 315 315 315 315 314 313 313 314 314 312 313 316 317 315 313 313 313 312 312 312 312 313 312 313 312 312 312 311 311 311 312 312 312 312 310 306 306 307 307 306 306 306 305 304 303 302 301 300 300 300 299 299 299 299 299 298 297 297 297 296 296 295 295 295 295 294 294 294 293 293 292 292 292 292 292
318 317 314 312 313 314 314 314 314 314 313 315 315 315 315 314 314 314 316 319 315 313 319 318 314 312 312 313 312 312 311 312 313 312 312 312 312 312 312 312 311 311 312 311 312 312 308 305 305 305 305 305 305 305 303 302 301 300 300 300 299 299 299 299 298 299 298 297 297 296 296 296 295 295 295 294 294 294 294 293 293 292 292 292 292 292
315 317 317 314 314 314 315 315 315 315 314 315 315 315 315 314 315 314 315 318 316 314 317 316 314 313 314 313 312 312 312 312 312 312 312 312 312 313 313 313 313 313 313 312 312 313 313 310 305 304 305 304 304 304 303 302 301 300 299 299 299 299 299 298 298 298 297 297 296 295 295 295 295 294 294 293 293 293 293 293 293 292 292 292 292 291
313 315 318 317 318 317 316 315 317 318 315 314 317 316 314 315 315 315 316 315 315 318 318 316 317 317 318 317 313 313 314 313 313 313 312 312 312 312 313 313 313 313 313 313 312 313 315 312 304 303 304 304 303 304 304 303 302 301 300 299 299 299 298 298 298 297 297 296 296 295 295 294 293 293 293 293 293 293 293 293 293 292 292 292 292 291
314 314 315 318 321 320 318 317 318 318 315 315 322 322 316 315 316 317 317 316 319 323 318 315 319 318 318 320 317 316 316 315 315 315 313 313 312 312 313 313 313 313 313 313 313 313 314 312 306 304 303 303 304 304 304 302 301 301 300 299 299 298 298 298 297 297 297 296 296 295 295 294 294 293 293 293 293 293 293 292 292 292 292 292 291 291
316 314 316 317 318 321 319 318 317 316 316 318 324 327 323 320 320 318 318 318 321 322 317 317 322 320 318 319 320 320 319 317 317 317 315 313 313 312 313 312 312 313 312 313 314 313 313 312 309 306 303 303 304 304 303 302 301 301 300 299 299 298 298 297 297 297 297 296 296 295 295 295 294 294 294 293 293 293 292 292 292 292 292 292 291 291
317 316 319 317 317 319 317 317 319 317 317 319 321 324 324 323 322 320 320 322 321 319 318 319 320 321 319 318 319 317 317 319 317 317 316 315 315 313 313 313 312 312 312 313 314 314 314 311 306 304 303 304 304 303 303 302 301 300 300 299 299 298 298 297 297 297 297 297 296 295 295 294 294 294 294 293 293 293 292 292 292 292 292 292 291 291
316 317 317 317 317 316 315 319 324 320 318 319 320 322 324 327 326 323 320 320 321 320 320 320 319 320 319 318 319 315 315 319 316 315 315 314 315 314 313 313 313 313 313 314 313 313 313 308 304 304 304 303 303 303 303 302 301 300 300 299 299 298 298 297 297 297 296 296 296 295 295 294 294 294 293 293 293 292 292 292 292 291 291 291 291 291
313 312 314 317 318 317 317 319 318 318 318 317 321 325 327 329 328 329 327 322 319 320 321 323 321 319 319 319 320 318 318 319 315 314 315 315 315 315 314 313 313 313 314 314 313 313 312 305 302 303 303 302 302 302 302 301 301 300 299 299 298 298 298 297 297 296 296 296 296 295 295 295 294 294 293 293 292 292 292 291 291 291 291 291 291 291
312 311 315 319 320 321 319 315 314 317 317 317 324 327 326 328 328 328 328 322 319 321 322 323 320 318 318 317 318 320 320 319 316 316 319 320 321 320 318 315 312 313 313 313 316 317 314 308 305 303 301 301 301 301 301 300 300 300 299 299 298 298 298 297 297 296 296 296 296 295 295 295 295 294 293 293 292 292 292 291 291 291 290 290 290 290
316 313 315 316 317 319 319 317 319 319 316 318 324 323 321 325 323 322 325 323 321 322 320 319 318 316 317 317 316 318 319 319 316 316 319 323 324 324 325 321 315 313 313 313 317 318 315 311 309 305 301 300 299 300 300 299 299 299 299 299 298 298 298 297 297 296 296 296 296 296 295 295 295 294 294 293 293 292 292 291 291 290 290 290 290 290
320 316 313 312 313 317 319 318 319 320 317 317 320 321 320 322 321 322 326 324 319 321 319 315 316 317 319 321 318 314 314 316 316 315 317 319 321 321 322 322 318 315 314 314 316 318 315 311 308 305 302 299 299 299 299 299 299 299 299 298 298 298 298 297 297 296 296 296 296 296 295 295 294 294 294 293 293 293 292 292 291 291 290 290 290 290
320 317 315 315 317 318 316 315 318 322 319 315 318 322 320 323 327 326 327 323 319 324 321 314 317 320 319 319 319 318 316 318 318 316 314 315 315 315 316 316 317 315 314 314 316 318 314 310 307 304 301 300 300 299 299 299 298 298 298 298 298 298 298 297 297 296 296 296 296 296 295 295 295 294 294 293 293 293 292 292 291 291 291 290 291 290
317 318 318 315 317 318 315 315 318 322 320 315 320 323 317 322 327 321 322 322 318 323 322 316 320 323 317 315 317 321 320 319 319 315 314 316 315 316 315 314 316 315 313 316 319 319 313 309 307 303 301 301 300 299 299 299 298 298 298 298 298 298 298 298 297 297 297 296 296 295 295 295 295 294 294 293 293 293 292 292 292 291 291 291 291 290
316 320 320 312 313 315 314 315 317 319 318 315 318 319 316 319 321 317 322 323 316 318 319 319 321 319 318 317 316 317 316 315 317 317 315 317 315 315 314 313 314 313 314 320 322 319 313 310 307 302 301 301 300 300 299 299 299 299 298 298 298 298 298 298 297 297 297 296 295 295 295 295 295 294 294 293 293 292 292 292 292 291 291 291 291 291
317 317 319 315 314 314 311 313 318 317 315 317 319 317 315 317 319 319 323 324 318 318 319 319 319 317 318 320 318 319 318 315 319 319 314 314 314 313 314 313 312 312 317 322 322 317 313 311 308 303 300 301 301 300 300 300 300 299 299 298 298 297 297 298 297 297 297 296 296 295 295 295 295 294 294 294 293 292 292 292 291 291 291 291 291 291
318 315 318 317 316 315 311 314 318 314 311 316 319 317 317 319 321 321 321 321 319 319 319 319 319 317 318 319 317 319 319 317 319 319 315 316 316 314 314 313 311 312 317 323 322 319 314 312 309 303 301 301 301 301 301 300 300 299 299 299 298 298 298 297 297 297 296 296 296 296 295 295 295 294 294 293 293 292 292 292 291 291 291 290 290 290
316 315 317 317 315 314 312 315 319 317 313 313 314 315 316 316 320 321 321 321 320 319 320 320 321 320 320 322 319 319 321 318 316 316 316 316 316 315 315 314 313 313 315 318 320 318 314 311 308 303 300 301 300 301 301 300 300 300 299 299 298 298 298 297 297 297 296 296 296 296 295 295 295 294 294 293 293 292 292 291 291 291 291 290 290 290
317 317 316 316 316 314 313 316 320 320 317 315 314 316 314 314 318 319 318 320 319 318 319 320 320 319 319 323 320 318 318 314 311 313 314 315 316 316 317 316 316 315 314 315 316 316 315 313 308 303 301 301 300 300 300 300 300 299 299 299 298 298 298 297 297 297 297 296 296 296 295 295 295 294 294 293 292 292 292 291 291 291 291 290 290 289
317 318 316 316 316 316 315 317 318 319 319 317 315 316 315 315 318 318 317 318 318 317 318 319 320 319 316 317 316 315 314 312 312 313 314 316 318 317 318 318 316 314 312 313 314 315 315 314 310 304 301 301 300 300 300 300 299 299 299 299 298 298 298 297 297 297 297 296 296 296 295 295 295 294 293 293 292 292 292 291 291 290 290 290 290 289
316 317 317 317 318 317 317 317 316 317 316 315 315 316 316 315 315 317 318 318 318 317 317 317 318 318 315 315 314 314 314 313 314 314 314 315 316 316 317 316 316 315 313 313 313 312 312 312 309 304 301 300 299 300 300 299 299 299 299 299 298 298 298 298 298 297 297 296 296 295 295 295 294 294 293 293 292 292 292 291 291 290 290 290 289 289
317 317 318 319 319 319 318 318 317 313 311 312 314 315 315 315 314 316 317 317 317 318 317 319 318 318 320 320 316 314 314 314 313 313 312 312 311 312 313 312 313 314 314 314 313 310 311 313 309 307 307 304 299 299 299 299 298 298 298 298 298 298 299 298 298 297 296 296 296 295 295 294 294 293 293 292 292 292 291 291 290 290 289 289 289 288
319 319 321 321 321 321 320 321 319 314 311 313 315 314 313 314 315 315 316 317 317 316 317 319 318 318 320 320 315 313 314 313 312 312 311 311 311 310 311 311 311 311 313 314 312 308 311 315 312 310 310 305 299 299 300 299 299 298 298 298 298 298 299 298 298 297 296 296 295 295 294 294 293 293 293 293 292 292 291 290 290 289 289 288 288 288
319 320 321 321 321 321 320 320 321 320 316 314 316 316 313 314 314 314 315 316 315 316 316 317 317 316 315 315 314 314 313 312 312 312 312 312 312 311 311 311 310 311 313 313 311 310 313 316 314 312 310 305 300 300 300 300 300 299 298 298 298 298 298 298 297 297 296 295 295 294 294 293 293 293 293 293 292 292 291 290 289 289 288 288 287 287
316 317 318 319 320 320 318 318 320 323 319 315 316 316 314 314 314 313 315 316 315 316 316 316 316 316 315 314 314 313 313 313 312 312 312 312 313 313 312 311 310 310 311 310 311 312 313 313 313 312 313 309 302 300 301 300 300 299 298 298 298 298 298 297 297 296 296 295 294 294 294 293 293 293 293 293 292 291 290 290 289 288 288 287 287 286
314 315 316 317 317 317 317 317 318 319 318 316 317 316 316 315 314 314 314 314 314 316 316 316 316 316 316 315 314 313 313 313 312 312 313 312 313 313 312 312 312 310 310 310 311 312 311 311 311 311 314 310 302 300 301 300 300 300 299 299 299 298 298 297 297 296 295 295 294 294 294 293 294 293 292 292 291 290 290 289 288 288 287 286 286 286
313 313 315 316 315 315 316 316 316 317 317 316 317 316 316 316 315 315 314 313 314 316 316 316 316 316 316 314 314 314 312 313 313 312 312 312 312 312 312 312 312 311 311 311 311 311 310 311 311 311 311 308 303 301 300 300 300 299 299 299 299 298 298 297 296 296 295 294 294 294 294 293 293 292 292 291 290 290 289 288 288 287 286 286 285 285
313 314 314 315 315 315 315 315 315 315 315 315 316 315 315 315 316 316 315 315 315 315 315 315 315 315 314 313 313 313 312 313 312 312 312 312 312 312 312 312 312 312 312 312 311 310 309 309 310 310 309 309 307 304 301 300 300 299 299 299 299 298 298 297 296 295 294 294 294 294 294 293 292 292 291 290 290 289 288 288 287 286 285 285 284 284
311 314 314 315 315 314 314 315 314 314 315 315 315 315 315 315 316 316 315 315 315 315 315 314 315 314 313 312 312 312 312 312 312 312 312 311 312 312 312 312 311 310 309 308 308 308 308 308 308 308 308 308 307 305 302 301 301 300 299 298 298 298 298 297 296 295 294 294 294 294 293 292 292 291 290 290 289 288 287 287 286 285 284 284 283 283
310 312 313 314 315 315 314 315 314 314 314 314 314 314 315 315 315 315 315 315 315 316 315 315 315 314 312 312 312 311 311 312 311 312 312 312 312 311 309 308 306 303 302 302 303 303 304 305 305 306 306 307 305 303 303 303 302 300 299 298 298 298 297 296 295 294 294 294 294 293 292 292 291 290 289 289 288 287 287 286 285 284 283 283 283 283
309 311 312 312 314 315 314 315 314 314 314 315 315 314 314 314 314 314 315 315 314 315 315 315 316 314 313 313 313 312 311 312 312 312 311 309 307 304 303 302 300 299 299 299 299 299 300 301 302 302 303 303 302 302 303 303 301 300 300 299 299 298 296 295 295 294 294 293 293 292 292 291 290 289 289 288 287 286 285 284 284 283 283 283 282 282
309 310 310 312 313 314 314 315 315 315 316 317 317 315 314 314 314 314 314 315 314 314 314 313 311 309 308 307 307 307 306 307 309 309 304 300 299 298 299 298 297 298 297 297 297 298 298 298 298 299 299 300 300 301 302 302 301 301 301 300 299 297 295 295 294 293 293 293 292 292 291 290 289 288 288 287 286 285 284 284 283 283 282 282 281 281
308 309 309 310 312 313 313 313 314 316 316 315 318 317 314 313 313 314 314 314 311 309 307 305 301 298 297 297 297 298 297 299 302 302 297 295 296 296 296 295 295 296 296 296 296 296 296 297 297 297 297 298 299 299 300 300 300 300 300 299 298 296 295 294 293 293 292 292 291 291 290 289 288 287 286 286 285 284 283 283 282 282 281 281 281 281
307 308 309 309 311 312 312 312 313 314 312 312 315 314 310 310 310 312 314 310 303 299 299 298 296 295 294 294 294 294 294 296 300 301 296 294 294 294 294 294 294 294 295 295 295 295 295 295 295 296 296 297 297 298 298 299 299 299 298 298 297 295 294 293 292 292 292 291 291 290 289 289 288 286 285 284 284 283 282 282 281 281 281 280 280 280
307 308 309 310 311 311 311 311 311 312 313 312 308 304 300 301 302 305 310 305 296 296 297 295 295 294 293 293 294 293 293 296 300 300 296 294 294 293 294 294 293 294 294 293 293 293 293 294 294 295 296 296 297 297 296 295 296 297 297 296 295 293 292 291 291 291 291 290 290 290 289 288 287 286 285 284 283 282 282 281 281 281 280 280 279 279
306 308 308 310 311 310 311 312 311 313 312 305 299 296 297 298 297 299 306 303 295 294 296 294 294 294 293 293 293 293 293 294 295 295 293 293 293 293 293 293 293 293 293 292 292 292 292 293 294 295 296 296 296 296 294 292 293 295 295 294 292 291 290 290 290 291 291 290 290 289 288 288 287 285 284 283 282 282 282 281 281 280 279 279 279 278
304 306 307 308 309 310 310 310 311 312 308 298 295 296 297 296 296 300 308 305 295 293 295 293 293 293 292 292 293 292 293 293 292 292 292 292 293 293 293 293 292 292 292 291 292 292 292 293 294 295 296 296 296 296 294 293 293 293 292 291 290 289 288 289 289 290 290 290 289 289 287 287 286 285 284 283 282 282 281 281 280 279 279 279 278 278
301 304 306 305 305 305 306 307 307 308 302 295 295 297 295 294 298 306 311 304 294 294 295 293 292 293 293 292 292 292 292 292 292 292 292 292 292 292 292 292 292 292 291 291 292 292 293 293 294 294 295 295 295 295 295 294 292 291 290 289 289 288 287 288 288 289 289 289 288 288 286 286 285 285 284 283 282 282 281 280 280 279 278 278 277 277
299 300 301 301 301 302 303 303 304 304 298 293 294 296 294 295 299 304 304 297 293 295 295 292 292 293 292 292 292 292 292 292 292 292 292 292 292 292 293 293 292 292 292 291 292 293 293 293 294 294 294 295 295 295 294 293 292 291 290 289 288 288 287 287 288 288 288 288 287 287 285 285 285 284 284 283 282 281 280 280 279 278 277 277 276 276
296 297 298 299 299 300 300 299 301 302 298 294 293 295 295 294 294 295 295 294 295 296 294 292 292 292 292 292 291 291 292 292 292 292 292 292 292 292 293 293 292 292 292 292 292 292 292 293 293 293 294 295 295 295 294 292 291 291 290 289 289 289 288 288 288 287 288 288 287 286 285 284 284 283 283 282 281 280 279 279 278 277 277 276 276 275
294 294 295 296 296 296 296 298 299 300 298 295 293 293 294 293 292 292 293 294 296 296 293 292 292 291 291 291 291 291 292 292 292 292 292 292 292 292 292 292 291 291 290 291 291 292 292 292 292 293 293 294 294 295 294 292 291 292 291 291 292 292 290 289 288 287 287 287 286 285 284 283 283 282 282 281 280 279 279 277 277 276 276 276 275 274
293 293 293 294 296 296 296 298 298 297 296 294 293 293 293 292 292 293 295 295 295 294 292 292 292 291 291 291 291 291 291 291 291 291 290 290 291 291 290 290 290 289 289 290 290 291 291 291 291 292 293 293 293 294 294 293 292 291 291 292 293 293 291 290 289 288 287 286 284 283 282 282 282 281 281 280 279 279 278 277 276 276 275 275 274 274
294 294 293 294 295 295 295 295 296 295 293 294 294 294 293 293 293 295 296 296 295 293 292 292 292 291 291 291 290 289 288 289 289 289 289 289 289 289 289 289 289 289 289 289 289 290 290 290 291 291 292 292 292 292 293 293 292 291 291 293 293 292 291 290 289 287 286 285 284 283 282 281 281 281 280 279 279 278 277 276 275 275 274 274 274 273
293 293 293 293 293 293 293 293 292 292 292 292 293 292 291 292 294 296 297 297 295 293 292 291 291 291 290 289 289 288 287 287 287 287 288 288 288 288 288 288 288 288 288 288 288 289 289 289 290 290 290 290 290 291 291 292 292 292 292 293 293 292 291 290 288 287 286 285 284 283 282 281 280 280 279 278 278 278 277 275 275 274 274 273 273 273
292 291 291 291 292 291 291 291 290 290 291 290 290 290 291 293 295 296 296 294 293 292 291 291 290 289 288 287 287 286 286 286 286 286 286 286 286 286 286 286 287 287 287 287 287 287 288 288 288 288 288 289 289 289 290 291 291 291 292 292 293 292 290 289 287 286 286 285 284 282 281 280 279 279 278 277 277 277 276 275 274 274 273 273 273 273
291 292 292 291 291 290 290 290 289 290 290 289 289 289 289 291 293 294 293 291 290 290 290 289 288 287 286 286 285 285 285 285 285 285 285 284 284 285 285 285 286 286 286 286 286 286 286 286 286 287 287 287 288 288 289 289 290 290 291 292 292 292 289 288 287 286 286 285 283 282 281 280 279 278 277 276 276 276 275 274 274 274 274 273 274 273
291 291 292 291 290 290 290 289 289 289 288 289 289 289 289 289 291 291 290 289 288 288 287 286 285 285 284 284 284 284 284 283 283 283 283 283 283 283 283 284 284 284 284 284 284 284 284 284 285 285 285 286 286 286 287 288 289 289 290 291 292 291 288 287 286 285 285 284 282 281 280 279 278 278 277 276 276 275 275 275 274 274 274 274 274 274
290 290 290 290 290 289 289 289 289 288 288 288 288 289 290 290 290 289 287 286 286 285 284 284 283 283 283 282 282 282 282 281 281 281 281 281 281 281 282 282 282 282 282 282 282 282 282 282 283 283 283 284 284 285 286 286 287 288 289 290 290 290 288 287 286 284 283 282 280 279 278 277 277 277 276 275 275 275 275 274 274 274 274 274 274 274
290 289 289 289 289 289 289 289 289 288 288 288 288 289 290 289 287 286 285 283 283 283 282 281 281 281 281 280 280 280 279 279 279 279 279 279 280 280 280 280 280 280 280 280 280 280 280 280 281 281 281 282 282 283 284 284 285 286 286 287 289 289 288 286 284 283 281 280 279 279 278 277 276 276 275 275 275 274 273 273 273 273 273 273 273 273
Wind_Speed
4 4 3 7 12 13 11 12 16 15 10 7 5 6 8 9 9 10 14 11 5 6 9 12 17 17 16 18 18 16 12 12 16 14 13 13 13 13 12 13 13 14 16 17 21 22 20 23 29 33 35 35 35 36 37 40 42 44 44 44 44 44 44 44 44 43 42 41 39 38 40 42 41 41 40 39 39 38 38 37 36 36 34 32 31 30
4 6 8 15 17 13 9 11 13 11 8 8 7 8 9 8 12 13 13 13 5 5 9 11 16 19 16 17 16 13 12 14 17 16 17 17 14 12 14 17 16 14 14 14 15 16 18 22 26 30 33 34 35 36 39 42 44 45 45 46 46 45 46 47 47 47 46 46 44 43 44 43 41 42 42 41 41 41 39 38 37 37 35 34 32 31
3 6 15 19 13 7 6 6 7 8 9 8 6 7 8 7 12 12 11 14 5 4 8 9 13 16 13 15 14 14 15 16 16 16 18 18 14 13 15 16 16 16 15 14 15 13 14 19 24 27 30 35 38 39 41 43 43 44 45 46 46 46 47 48 48 48 47 46 45 42 41 40 39 40 42 41 41 40 39 38 37 37 36 35 34 32
5 8 16 16 6 5 8 6 5 6 6 7 6 6 8 7 9 9 6 9 4 3 6 8 11 12 9 11 12 15 19 16 15 16 17 17 14 15 17 15 14 17 17 16 18 14 10 14 19 24 29 33 34 35 37 40 41 43 45 46 45 46 48 47 47 47 45 42 40 37 35 36 36 36 37 37 37 39 39 38 38 37 37 36 35 33
10 8 10 9 7 9 11 8 6 6 7 9 9 8 11 12 12 11 6 6 5 4 5 6 12 11 9 12 13 13 16 15 14 15 16 18 16 15 17 16 15 17 17 17 18 14 9 10 16 23 27 30 32 34 38 42 43 44 45 45 45 46 46 47 47 45 42 39 37 33 29 29 31 30 31 34 35 38 39 40 40 39 38 37 35 34
11 7 5 7 9 10 11 9 8 8 10 8 8 13 18 16 13 13 10 8 6 6 4 1 8 9 7 12 13 10 10 12 11 13 16 19 17 13 15 18 17 16 17 16 18 15 9 9 13 20 25 28 31 36 40 43 44 43 43 44 44 45 45 45 45 44 42 40 39 37 33 32 32 29 33 39 40 41 42 42 42 40 38 37 35 34
7 7 8 9 10 10 9 7 9 11 9 9 6 13 17 13 10 12 9 5 3 5 4 2 2 10 6 7 10 10 9 11 10 12 16 17 15 12 13 16 16 15 14 13 15 14 10 10 11 16 24 29 33 37 38 38 40 40 41 43 44 44 44 44 44 44 43 42 42 42 41 39 37 35 37 41 40 41 42 41 40 40 38 37 36 35
5 7 8 10 9 7 7 9 11 12 8 8 4 9 10 9 9 8 6 5 4 3 4 2 4 8 13 6 10 12 10 10 11 14 17 16 13 12 13 15 16 17 15 10 11 12 12 11 12 16 24 32 35 34 33 34 37 39 39 42 43 42 42 43 43 45 46 45 44 44 42 39 40 40 38 36 36 38 40 39 39 40 39 39 37 36
5 7 10 11 7 6 9 11 9 13 8 7 3 7 7 6 6 5 5 5 2 4 4 4 5 4 14 7 7 9 9 9 13 17 18 16 12 12 14 15 16 17 14 9 11 13 12 11 15 20 26 31 32 30 33 36 38 38 39 40 42 42 42 43 44 46 47 47 45 44 42 39 39 38 34 33 35 36 37 39 40 40 40 40 39 38
2 5 8 10 7 8 10 7 8 13 9 4 6 5 5 3 3 5 3 1 2 5 5 6 5 3 13 7 4 3 5 9 13 14 14 13 11 12 13 14 15 14 12 11 12 12 11 11 17 21 23 26 28 30 33 35 35 37 38 40 42 43 42 42 44 46 47 46 44 44 44 42 38 35 33 32 33 35 37 38 39 40 41 41 40 39
2 1 3 5 6 7 5 2 3 8 6 3 7 5 6 5 5 4 1 4 2 8 6 10 11 7 8 6 5 4 5 8 9 8 9 10 11 13 12 12 13 14 13 10 9 9 8 9 14 18 19 22 26 28 30 32 34 37 38 40 41 41 40 42 44 46 47 47 46 45 46 44 40 37 35 33 34 36 37 38 40 40 41 41 42 41
3 1 2 3 3 4 6 4 2 2 4 5 4 4 3 4 4 4 4 4 2 9 6 12 13 10 10 7 3 5 6 5 7 8 9 11 12 12 11 11 12 13 12 7 6 7 6 6 9 13 16 19 23 26 29 32 34 36 37 39 39 39 41 42 44 46 46 47 47 47 46 45 43 40 39 39 38 39 40 41 40 39 39 40 40 41
4 6 5 2 1 5 6 3 3 5 3 5 4 5 1 4 3 2 3 1 4 8 5 9 8 7 12 8 4 8 10 8 9 9 10 11 11 11 11 11 12 10 9 7 6 7 6 7 9 10 13 18 22 27 30 32 34 35 37 39 40 42 43 43 43 46 47 48 50 49 47 46 43 42 42 42 41 41 43 42 40 40 40 40 41 42
4 6 4 2 3 4 8 6 3 2 4 7 6 6 5 3 2 3 4 2 5 8 4 5 5 5 8 4 9 15 15 13 9 9 11 11 11 12 11 11 10 10 9 8 7 6 7 9 9 10 13 17 21 26 29 31 34 35 36 39 41 42 42 43 44 46 47 49 51 50 48 45 43 43 43 43 43 43 43 43 43 44 44 44 45 46
4 9 5 8 3 6 12 12 9 5 5 7 5 6 6 5 5 4 5 6 7 6 4 2 5 5 3 2 8 12 9 8 6 7 8 8 9 10 10 10 11 12 12 7 5 6 8 9 9 9 13 18 21 24 27 30 33 34 36 39 41 40 42 44 45 45 47 50 50 48 47 45 44 44 44 43 43 43 43 44 44 45 46 46 47 47
4 10 7 5 2 9 13 11 8 7 2 3 4 4 4 6 6 4 6 6 3 2 4 3 5 5 4 5 7 7 8 8 6 7 6 8 10 10 11 12 12 13 11 5 3 7 8 8 8 9 13 17 19 22 26 30 32 35 37 39 41 42 42 44 44 45 47 48 45 44 46 46 45 44 43 43 43 43 43 44 44 46 46 46 46 46
4 7 3 1 1 4 6 4 4 4 3 3 4 4 4 4 6 5 6 2 2 4 6 4 6 6 5 8 6 3 6 7 7 9 9 10 11 9 10 11 11 12 10 6 5 7 7 7 8 10 14 17 21 25 29 33 37 39 39 39 40 40 39 42 45 46 46 44 42 43 44 44 44 45 46 46 45 43 42 42 43 44 44 45 45 45
6 6 3 4 3 3 3 2 2 2 2 5 4 6 2 3 2 3 2 2 2 8 7 6 11 9 5 8 4 5 5 8 8 7 7 9 9 8 10 11 11 11 9 8 7 8 7 8 8 10 15 21 26 30 33 36 38 38 37 38 38 38 40 44 46 46 45 43 43 44 45 46 46 47 47 45 43 41 40 41 43 42 43 44 45 45
4 6 5 1 2 2 4 2 2 5 3 5 4 2 4 1 3 2 3 3 6 9 7 10 16 10 7 9 5 4 8 10 8 6 6 8 8 8 9 11 13 11 9 9 8 8 8 8 9 11 16 22 27 29 31 33 33 34 36 37 37 39 41 41 39 39 41 42 43 45 46 48 48 46 45 44 41 39 41 43 43 43 43 44 44 45
1 3 5 2 1 1 3 1 3 2 1 1 1 2 1 3 4 3 3 3 6 10 8 10 13 10 8 6 5 7 8 7 6 6 7 8 8 7 8 9 11 11 11 10 9 8 9 9 10 13 17 21 24 26 27 28 30 34 36 36 36 38 38 37 37 39 41 43 45 46 45 45 46 46 45 43 41 41 43 44 44 44 44 44 44 45
2 2 5 3 3 2 1 4 6 6 4 2 2 3 2 2 1 1 2 2 3 8 8 8 10 10 7 4 7 7 7 5 3 8 8 9 9 9 9 8 9 10 11 11 9 9 10 10 11 13 16 17 18 21 24 27 30 32 33 34 37 38 37 38 40 42 43 45 46 45 44 45 46 46 45 42 42 42 43 43 43 44 44 44 44 45
0 3 5 4 4 5 5 4 6 8 8 6 6 7 7 6 4 5 7 5 4 6 8 9 10 9 7 3 5 4 5 6 8 9 8 8 9 10 9 9 9 8 10 11 11 11 11 11 10 10 11 13 16 20 23 27 28 29 32 36 37 37 38 40 43 44 46 46 45 45 46 46 45 44 43 42 42 43 44 43 44 45 44 44 45 45
3 1 2 5 6 8 11 7 4 7 7 4 4 6 7 7 7 8 10 8 5 5 6 8 10 6 6 11 10 8 11 11 9 8 8 8 9 10 9 10 9 9 11 12 12 11 9 9 7 6 9 13 17 20 22 24 27 31 35 37 36 37 40 44 46 47 46 44 44 45 45 43 41 41 42 42 43 44 45 44 44 44 45 45 45 45
4 3 2 6 5 6 12 12 6 3 2 4 5 6 8 8 9 11 9 5 6 7 6 8 10 6 4 12 16 15 13 10 9 10 10 10 10 9 9 10 10 11 12 13 13 10 7 7 6 6 8 10 15 19 20 22 26 30 33 35 36 40 44 46 46 44 42 42 43 42 41 40 40 40 41 43 44 45 45 44 43 44 45 45 45 45
4 3 4 5 5 5 6 7 8 4 3 4 4 6 10 11 10 8 4 2 6 10 11 11 11 7 6 10 14 18 19 17 16 15 12 11 11 10 10 10 11 12 12 13 13 9 7 7 7 8 7 8 13 18 20 23 27 30 33 36 38 42 45 45 44 42 41 42 41 39 39 39 39 40 42 44 45 45 44 43 42 43 44 44 44 45
4 5 5 6 7 8 8 8 6 4 4 4 4 7 12 13 13 9 5 6 8 10 13 12 10 9 10 11 14 21 23 22 22 20 14 10 10 11 11 10 11 11 11 13 10 7 7 8 8 9 9 9 13 16 19 23 28 32 34 37 39 41 41 41 41 40 40 40 39 38 39 39 40 42 45 46 46 45 44 43 43 43 43 44 44 45
1 5 9 12 13 12 14 14 7 4 5 6 7 10 11 10 11 10 8 9 10 10 12 12 12 14 14 13 17 22 23 23 24 23 17 11 11 13 12 10 10 11 12 11 7 7 9 9 10 11 10 9 11 15 19 23 27 30 32 35 38 39 38 38 37 38 38 38 38 38 39 41 44 46 47 47 45 43 42 42 43 43 43 43 44 45
1 5 11 17 19 18 18 20 16 11 10 10 9 10 10 8 9 10 11 12 11 10 12 11 13 16 16 16 19 22 22 22 23 23 20 18 18 16 14 12 12 13 12 9 7 10 12 13 13 12 10 10 11 15 20 24 28 30 31 34 37 37 37 36 35 37 38 38 38 39 41 44 46 46 45 43 42 40 40 41 42 43 43 43 43 45
3 6 11 15 18 19 19 20 20 17 16 14 13 14 14 14 14 15 17 17 14 14 16 15 17 21 18 16 20 23 24 23 21 21 21 22 22 21 19 17 15 13 10 8 10 11 11 12 13 12 12 11 10 15 19 23 27 28 30 34 35 35 36 36 35 37 37 37 38 41 43 44 43 41 40 38 38 39 40 41 42 42 42 43 43 44
3 6 11 15 18 18 19 20 20 20 19 18 19 20 20 20 22 23 23 22 22 23 23 22 25 26 19 17 21 23 22 19 17 18 20 22 24 24 23 21 18 14 10 8 11 11 10 12 13 13 14 12 12 14 17 22 26 28 31 34 34 33 35 35 36 37 36 37 40 42 42 40 39 38 38 39 39 40 40 41 41 41 42 42 43 43
5 7 10 13 13 14 17 19 19 20 21 22 23 22 21 23 24 25 23 21 20 24 26 27 28 23 18 19 22 21 19 18 18 20 21 22 24 25 24 21 16 14 12 11 10 11 11 13 13 14 14 14 15 17 19 23 27 28 30 31 31 32 34 36 36 36 36 39 41 40 38 37 37 38 39 39 40 40 40 41 41 42 42 42 42 43
4 4 6 9 8 9 13 18 22 22 22 23 22 22 23 23 22 21 21 20 21 24 25 25 21 17 16 19 21 20 20 21 21 22 23 22 21 18 15 14 14 14 15 15 15 14 13 13 13 15 15 15 17 20 23 26 26 26 28 30 32 33 33 34 35 35 37 39 38 36 36 37 37 38 39 39 40 41 41 41 41 42 42 42 43 44
4 4 4 6 7 7 11 16 19 17 14 14 16 22 26 26 23 22 22 22 24 22 20 19 18 16 16 16 16 17 18 18 18 18 15 13 12 12 12 13 13 13 13 14 15 16 16 15 13 14 15 16 19 24 28 28 26 27 30 32 32 30 29 31 34 34 35 36 34 34 36 37 37 38 39 40 41 41 41 41 42 43 44 44 44 44
6 7 5 5 6 7 9 12 12 11 10 8 10 19 26 27 27 26 24 26 28 24 18 13 9 10 10 9 10 12 13 14 14 8 7 9 11 12 12 12 12 13 14 14 14 14 14 14 14 15 19 22 26 30 33 31 28 30 32 29 25 24 27 30 32 32 32 31 32 34 35 36 37 38 38 39 39 40 41 42 43 43 44 43 43 43
10 10 8 6 6 7 8 9 11 10 7 4 3 9 18 24 26 27 27 25 18 11 7 8 12 15 14 12 12 11 12 17 14 6 12 13 11 12 13 13 13 13 14 13 15 15 15 15 14 16 21 27 32 33 32 32 31 32 32 26 22 24 27 29 30 30 30 30 30 32 34 35 37 36 36 37 38 40 41 42 42 42 42 43 44 45
12 10 7 6 7 7 7 9 12 10 5 3 3 5 6 9 12 17 19 11 10 15 13 12 12 12 13 14 13 12 14 16 7 4 11 14 14 12 12 13 13 13 13 13 13 13 14 16 17 18 22 28 33 32 30 30 30 28 28 25 22 23 25 26 27 27 28 29 31 33 36 37 37 36 36 37 38 39 40 40 41 42 42 42 42 42
11 9 7 7 7 7 10 12 13 13 10 6 4 6 6 5 7 9 7 3 12 13 11 11 12 13 13 12 12 13 16 13 5 2 10 16 14 12 12 11 12 12 12 13 15 16 19 22 23 24 26 29 31 30 29 30 28 24 23 22 20 20 21 22 24 26 28 30 33 36 38 38 38 36 36 37 38 39 40 41 41 41 41 41 40 39
8 8 7 7 6 7 12 12 11 13 9 3 6 8 8 9 10 8 4 2 8 10 9 11 13 13 12 11 12 14 14 11 8 8 12 15 15 13 12 12 12 12 12 13 16 20 24 27 28 28 29 28 30 33 32 30 26 20 17 16 14 14 15 18 22 26 29 32 35 36 38 38 39 38 38 39 40 40 40 39 39 39 40 41 40 38
4 5 6 6 5 8 12 11 9 10 3 4 9 10 10 14 13 6 4 3 7 9 7 9 11 10 9 9 10 11 10 9 9 9 11 14 14 13 12 12 12 13 14 17 18 19 24 28 29 30 30 28 29 35 37 33 27 19 13 12 10 10 12 15 17 19 22 26 29 31 34 36 37 38 38 40 40 39 38 37 36 36 37 38 37 36
6 3 3 4 6 9 12 10 8 5 2 5 10 10 12 15 12 4 4 2 9 8 4 7 9 7 6 7 7 6 6 6 9 10 12 14 14 11 11 11 12 12 14 18 21 23 25 26 26 26 27 26 29 35 37 34 28 21 15 13 11 10 13 14 14 15 16 17 19 24 28 31 34 36 37 37 37 35 35 35 34 35 36 35 34 33
3 2 3 5 7 9 10 10 8 3 3 3 8 9 11 12 6 3 5 7 9 8 5 6 8 5 4 6 6 4 4 5 8 11 13 13 13 12 10 11 13 14 14 17 21 24 25 25 25 24 25 27 30 34 35 32 27 22 18 16 13 13 13 13 14 14 14 14 16 20 24 27 30 32 32 32 32 31 32 34 34 35 36 34 32 31
2 2 3 4 5 5 5 7 9 5 2 6 9 8 6 6 2 4 7 6 5 6 7 8 6 5 5 6 5 5 7 6 7 10 11 11 12 13 12 12 13 14 16 17 19 21 22 22 24 25 27 30 31 31 32 29 24 22 20 17 16 18 16 15 15 13 12 14 16 19 21 23 25 25 26 27 29 30 30 30 32 33 34 32 31 31
3 4 4 4 4 5 6 7 8 6 2 9 12 8 5 4 4 6 6 5 5 5 7 7 6 5 7 6 5 5 6 7 7 7 9 10 11 12 13 13 13 14 16 17 18 20 20 19 21 23 26 29 29 30 30 27 22 21 20 18 22 24 21 19 16 13 11 13 14 16 18 20 20 21 22 24 26 28 28 28 29 30 31 32 30 29
4 4 5 4 3 4 5 6 5 4 5 6 6 4 4 5 5 5 5 5 5 4 4 5 5 6 5 4 5 5 5 6 7 7 9 11 11 12 13 13 13 14 15 17 19 22 21 19 20 23 25 26 27 28 29 25 21 19 18 21 27 27 23 21 18 14 11 11 12 13 16 18 19 20 21 22 25 26 26 27 29 29 30 31 30 29
4 4 4 5 4 4 5 7 7 7 7 5 2 3 5 6 6 6 6 6 5 4 3 3 4 5 3 3 5 5 5 6 7 8 9 10 11 12 12 12 13 14 15 17 19 22 22 20 21 23 24 26 27 27 27 26 22 18 20 26 28 25 22 21 18 14 12 12 12 13 15 18 19 21 22 24 26 27 26 28 28 28 28 29 29 28
5 6 6 4 4 6 7 8 8 7 8 8 6 6 7 7 7 7 6 6 5 4 3 3 4 4 3 4 5 6 6 8 8 9 9 10 10 11 10 11 13 14 15 16 18 21 22 22 22 22 23 26 27 25 26 27 23 20 24 30 29 24 21 19 17 16 15 15 15 16 17 19 20 22 23 25 27 28 28 29 30 28 28 28 27 27
6 7 6 5 5 6 7 8 8 7 8 10 11 11 9 7 7 6 5 5 5 4 4 3 3 4 5 5 5 7 8 9 10 10 9 9 10 11 10 10 11 12 14 16 19 22 22 19 18 19 21 24 26 25 26 27 26 25 29 32 30 26 22 19 17 18 18 18 18 18 20 22 23 24 25 26 28 28 27 29 30 29 28 28 28 26
4 3 3 5 7 6 8 10 10 10 12 12 11 9 8 6 6 5 4 4 4 4 4 4 3 4 5 6 6 7 9 9 9 10 10 10 10 10 10 10 10 12 15 18 21 22 21 18 17 18 20 23 26 27 27 27 28 29 29 31 31 27 22 21 21 21 21 21 20 21 23 24 26 26 27 28 30 30 30 31 32 32 33 35 35 32
2 1 3 6 7 6 8 11 12 12 13 11 9 8 7 5 5 4 4 4 4 4 4 5 5 4 5 7 7 7 8 10 9 9 9 10 10 10 10 11 11 13 17 19 20 21 20 19 20 21 22 25 28 29 28 28 29 30 29 30 31 27 23 24 24 24 23 22 22 23 24 25 28 29 29 29 31 32 34 35 36 36 35 37 39 38
1 5 7 6 5 7 10 11 10 9 9 9 8 8 6 5 5 4 4 3 3 3 4 6 7 7 7 7 7 6 8 10 10 10 10 10 11 11 12 12 12 13 18 21 22 23 23 23 23 24 25 28 30 29 28 29 30 30 29 30 31 28 25 26 25 23 23 22 22 23 24 25 27 28 28 27 28 28 29 29 32 33 30 30 33 33
6 9 9 6 8 11 12 12 10 8 8 11 10 6 4 3 1 2 3 3 3 4 4 5 8 9 9 9 7 7 9 11 11 11 11 11 12 12 14 15 14 13 18 22 21 21 22 24 25 25 26 30 31 30 29 29 30 31 31 31 31 29 28 28 25 22 22 22 24 26 26 26 25 25 25 24 24 23 22 21 23 25 24 24 25 26
Wind_Direction
143 137 156 198 221 226 214 200 217 232 241 252 256 255 252 257 264 253 262 264 204 233 238 224 246 249 247 253 254 259 261 261 264 263 259 253 254 257 254 253 250 246 248 252 254 250 239 227 220 217 215 212 211 210 207 204 203 203 201 200 200 200 199 198 197 198 199 199 199 200 203 206 208 208 209 211 213 214 214 212 210 209 209 207 205 204
143 167 204 218 222 223 218 211 223 240 252 257 250 260 264 255 265 258 260 272 221 205 249 231 249 255 247 251 255 258 257 255 257 257 259 255 248 251 252 253 252 249 252 259 261 249 232 225 217 212 209 205 204 204 204 204 203 202 201 200 200 198 197 198 199 198 199 201 200 200 203 205 205 206 208 210 212 214 215 214 212 211 210 209 207 206
174 204 224 226 224 232 241 216 217 235 237 243 243 260 267 254 272 268 250 265 244 183 259 249 252 257 249 251 253 255 254 250 252 250 256 258 250 249 247 248 252 254 257 257 258 249 225 219 213 207 205 204 205 204 203 204 202 199 199 200 199 197 197 199 200 200 201 203 203 203 204 204 204 207 209 211 213 214 215 215 214 213 212 211 208 206
205 227 231 228 215 225 248 236 214 249 242 223 224 245 261 249 262 268 243 266 262 199 268 271 266 263 253 258 254 251 253 253 255 253 255 259 251 249 249 246 247 251 255 254 255 251 223 213 209 204 204 204 203 202 201 201 199 197 199 199 197 197 197 199 200 201 202 201 201 203 205 204 204 208 209 211 213 214 215 215 215 215 213 211 209 207
233 233 223 211 198 207 234 241 220 253 256 221 209 223 249 246 243 254 270 305 302 274 284 287 285 275 228 239 248 245 251 254 256 255 256 258 250 249 257 254 245 245 250 251 254 251 220 207 208 205 205 202 200 201 201 200 199 198 198 198 197 197 197 199 200 199 199 197 196 198 199 200 202 206 205 207 211 212 213 215 215 215 214 212 211 209
249 232 168 174 199 204 218 234 214 220 252 248 209 215 236 244 247 258 281 319 316 291 304 312 294 288 197 208 237 242 246 248 250 250 251 256 252 245 254 258 250 245 246 248 255 253 225 208 207 205 204 200 201 204 204 202 200 198 198 196 196 197 197 199 199 197 196 195 194 192 190 191 195 199 202 205 208 207 210 213 213 213 213 213 213 211
246 216 175 182 198 197 202 237 222 203 239 271 223 212 230 241 248 256 268 295 268 259 294 105 243 286 262 199 220 230 237 243 247 251 249 251 252 242 242 255 258 253 249 243 249 251 231 208 200 205 204 201 204 207 205 202 199 198 197 195 195 196 197 197 197 196 196 195 195 196 196 196 196 200 205 208 209 208 209 210 212 212 213 214 215 213
209 199 197 199 192 181 193 236 225 186 210 265 217 189 209 225 233 229 223 233 236 275 301 162 148 274 282 237 198 211 219 238 248 251 252 250 248 247 244 249 253 255 253 240 241 244 231 212 202 205 205 204 207 206 200 198 198 197 196 195 196 196 197 197 197 197 197 197 198 199 201 202 204 206 209 209 208 210 210 209 211 212 212 214 215 215
171 187 202 191 178 188 207 223 194 159 198 253 155 151 168 188 203 163 170 217 272 346 295 222 142 257 279 258 181 201 205 224 241 240 248 252 247 247 248 249 250 254 254 239 234 236 226 212 208 208 206 206 206 201 198 198 197 196 195 195 195 197 198 198 198 198 199 200 200 201 202 205 209 210 211 209 208 209 209 208 210 211 211 213 214 216
178 200 193 169 174 213 217 215 163 161 204 229 110 97 76 82 84 94 127 139 19 307 253 204 163 229 281 276 144 161 199 219 236 236 246 258 259 254 251 255 257 258 256 237 232 235 224 214 213 209 205 203 202 200 199 197 194 193 194 194 196 198 199 198 199 200 200 202 202 203 204 207 209 208 209 209 207 207 207 207 208 209 210 211 212 213
235 179 168 171 191 205 184 132 149 169 183 126 95 59 32 20 28 54 43 67 5 279 235 189 184 190 273 286 138 173 215 211 223 235 252 260 262 261 254 256 257 255 255 241 233 240 227 216 211 203 199 198 197 197 196 194 193 193 193 194 196 198 198 199 200 201 202 202 204 206 208 208 208 206 204 205 204 204 204 205 206 207 209 210 211 211
254 192 206 225 181 127 104 95 23 44 105 105 95 76 30 333 6 24 356 57 212 266 225 188 186 184 235 258 178 236 256 214 206 220 237 244 252 259 257 257 254 253 259 252 233 230 212 196 195 193 194 192 190 191 192 192 192 192 193 194 195 198 200 201 201 202 203 204 206 209 210 211 210 207 205 205 205 204 203 204 205 205 207 208 209 210
268 220 207 242 176 138 123 120 356 1 74 109 114 122 126 299 339 348 308 116 215 258 234 185 177 207 242 245 220 260 270 241 215 211 222 233 244 253 258 259 259 264 270 256 229 215 199 193 191 190 191 188 188 191 191 191 190 191 194 194 196 199 201 201 202 203 204 206 209 210 211 212 212 210 210 209 208 207 206 205 204 203 204 205 206 208
291 268 182 149 271 180 150 170 225 275 175 160 156 154 167 210 237 255 264 270 257 265 255 171 164 245 276 262 216 233 250 248 232 222 225 229 238 247 256 266 274 280 273 252 226 208 204 204 198 193 192 190 192 193 191 191 191 192 194 196 199 201 201 202 204 204 205 208 211 211 211 212 212 212 213 212 211 210 208 206 205 206 206 206 207 209
254 285 193 163 226 183 177 201 199 152 161 185 161 144 177 188 179 205 230 249 260 278 297 186 175 223 274 275 220 223 251 269 251 243 252 257 260 264 272 281 284 278 271 259 218 211 216 210 201 197 197 196 195 192 191 192 193 194 196 199 200 202 202 203 205 206 207 211 212 212 212 213 213 214 215 215 214 212 210 208 207 208 208 208 210 211
221 270 229 179 183 165 184 211 179 117 129 220 120 120 215 202 178 219 248 236 227 297 290 226 216 234 235 255 249 241 261 272 274 283 289 273 260 259 265 268 267 267 277 294 231 232 234 218 205 199 199 199 194 191 193 195 195 197 200 201 203 204 204 204 206 207 210 212 213 212 213 214 214 214 215 216 216 214 212 211 209 210 210 210 211 211
231 272 247 186 297 170 189 216 166 149 197 184 135 183 217 158 159 222 272 288 109 260 262 223 239 275 304 279 259 227 248 260 280 280 260 254 257 258 261 263 264 271 291 309 258 246 244 226 218 208 200 195 191 193 197 199 200 202 203 203 204 205 204 206 208 210 212 213 213 214 215 215 215 215 216 217 216 215 213 212 212 212 211 211 211 211
240 271 252 184 220 277 328 7 17 346 120 128 177 210 161 76 133 176 244 317 251 251 260 254 257 270 295 280 300 27 324 285 281 277 271 280 285 279 273 272 274 280 298 298 268 257 252 232 226 217 205 201 198 198 200 203 204 205 206 206 206 205 206 208 210 210 211 212 212 214 215 216 217 217 218 218 217 215 212 211 211 211 211 211 211 211
244 264 273 179 176 304 356 19 334 343 68 136 204 220 108 148 234 162 171 220 234 244 254 263 269 268 241 250 277 310 291 281 284 311 321 300 289 285 286 287 290 293 295 284 266 257 250 234 229 220 210 207 206 204 204 205 204 206 209 210 209 209 210 211 212 212 213 213 213 215 216 216 217 218 219 218 217 216 214 213 211 210 212 212 211 210
334 257 272 3 30 310 18 121 199 270 332 131 257 330 74 179 192 181 185 181 225 244 249 256 267 266 242 227 213 232 238 242 279 331 327 298 292 285 281 283 288 289 285 279 270 260 250 239 237 230 219 211 207 207 206 204 205 207 210 211 212 213 213 212 214 214 215 215 215 217 217 217 217 217 218 217 216 216 216 215 212 210 211 211 210 210
8 264 261 317 335 284 227 200 189 188 196 193 219 246 248 225 189 241 237 171 222 247 248 248 252 257 261 197 169 205 211 192 303 333 313 299 299 287 277 272 271 279 286 284 275 264 255 245 238 237 236 225 212 210 207 205 208 209 211 212 213 213 212 212 214 215 217 217 217 217 216 217 217 216 216 215 215 216 217 216 213 211 210 210 210 210
36 257 265 278 274 259 255 231 196 202 200 185 198 211 214 221 235 264 253 220 210 245 246 250 251 254 272 251 170 192 251 280 312 307 283 275 273 270 271 267 263 271 278 276 268 259 254 249 236 225 230 227 216 211 208 207 209 209 211 214 215 214 213 214 215 216 218 217 217 217 217 217 216 214 213 213 214 216 217 216 214 211 208 208 209 209
158 156 273 257 248 260 278 285 230 229 242 240 230 217 214 216 214 233 245 231 220 240 246 260 261 248 271 282 279 276 279 288 290 266 250 252 253 255 261 267 273 272 269 272 273 269 271 277 267 225 213 217 219 216 211 210 210 211 214 214 214 215 216 217 217 218 218 217 217 218 217 217 216 213 212 211 213 215 216 216 214 211 208 207 207 207
157 131 231 256 262 266 278 289 280 236 237 272 263 227 219 223 220 229 243 239 233 236 232 255 258 236 247 275 279 282 278 269 253 245 248 257 258 257 261 269 274 268 267 272 272 274 282 285 267 231 217 218 223 221 215 214 216 217 218 216 213 216 219 219 219 218 217 217 218 218 216 216 214 212 211 211 213 215 215 214 213 211 209 206 204 205
210 190 200 237 260 259 264 282 277 249 199 224 237 229 231 232 233 246 266 247 238 232 228 244 255 243 241 261 276 284 281 272 265 260 255 257 264 267 266 267 263 258 261 268 272 279 275 259 244 236 232 224 223 222 217 217 220 222 222 219 216 218 220 220 219 218 217 217 217 216 215 214 212 211 212 212 213 214 213 212 211 210 209 205 203 202
216 209 197 219 242 249 250 249 243 230 227 230 220 228 232 227 226 237 247 237 237 232 229 240 253 253 255 266 275 276 275 276 276 273 265 254 259 268 269 263 258 256 254 259 271 280 260 244 238 238 235 227 224 224 223 222 223 224 225 223 221 221 222 221 218 217 217 216 215 214 213 212 210 211 213 214 214 212 211 210 209 208 207 205 202 200
194 212 215 228 233 238 250 252 235 186 210 230 226 227 229 227 228 234 239 239 242 245 241 241 251 258 259 261 263 265 271 277 278 279 279 274 269 272 269 257 252 257 261 262 267 269 261 255 250 245 243 243 239 234 232 230 229 228 227 226 224 223 223 222 219 217 216 215 214 213 212 211 211 212 213 213 213 211 209 207 207 207 205 204 202 198
199 222 221 231 236 238 246 252 250 240 235 234 232 234 233 229 228 231 238 242 248 258 254 243 246 254 252 249 254 262 267 269 273 280 286 286 282 279 274 266 260 261 270 281 278 268 271 276 277 275 269 261 253 245 241 238 236 233 231 231 228 224 223 221 218 216 215 214 212 212 212 212 213 214 213 212 210 208 206 205 205 205 204 202 201 198
210 239 231 234 242 242 242 249 251 251 251 242 237 241 241 238 237 238 241 241 241 249 255 252 247 249 247 243 249 255 258 262 270 278 281 282 283 283 281 277 274 270 271 274 271 267 265 268 271 273 268 259 251 249 247 245 243 237 234 235 232 225 222 219 216 215 215 212 212 214 214 213 213 212 210 209 206 205 204 203 203 202 201 201 200 199
218 237 233 239 249 247 243 245 244 246 252 250 244 242 242 243 245 245 246 246 246 250 257 259 255 253 251 247 247 250 256 263 268 270 273 278 280 283 284 283 284 288 284 266 261 261 255 253 254 255 257 255 248 246 245 246 245 239 235 235 231 225 222 217 215 215 213 212 214 215 213 212 210 207 206 205 204 203 202 201 200 199 199 199 198 198
245 231 232 245 253 247 244 246 242 239 241 244 244 241 241 245 248 250 252 253 253 255 256 255 256 257 255 253 254 256 260 263 264 266 271 273 274 278 285 293 306 323 330 324 306 289 273 263 259 258 256 254 251 249 247 248 248 244 240 237 231 226 222 216 213 213 212 213 216 214 210 208 205 203 202 201 201 200 199 198 197 196 197 196 196 197
270 260 256 261 261 246 241 242 242 239 238 240 243 243 243 244 245 246 248 245 247 252 254 254 255 254 250 249 252 253 254 256 259 263 266 271 280 293 310 331 352 1 356 350 347 339 322 302 286 277 270 262 258 255 252 251 251 249 243 237 232 229 222 215 212 212 213 215 214 210 206 204 201 199 199 198 198 198 196 195 194 194 195 195 195 196
246 264 268 262 262 255 244 243 245 243 240 237 233 232 237 241 243 245 247 246 245 246 249 250 250 253 258 261 263 265 264 262 263 268 277 294 324 353 9 12 6 358 353 350 349 347 342 334 320 302 291 281 274 271 266 261 254 248 244 240 237 230 219 213 213 214 214 214 211 206 204 201 198 196 196 196 196 195 193 192 192 193 194 194 194 195
242 252 257 255 262 268 264 263 260 247 241 243 226 222 229 236 241 243 244 245 245 246 251 260 285 317 330 333 326 318 311 303 300 322 23 29 20 13 6 2 357 350 346 344 340 340 339 336 332 324 318 310 299 291 285 279 271 263 257 251 242 230 219 214 214 214 214 212 208 204 201 199 196 195 195 194 192 191 190 191 192 193 194 193 193 193
252 256 257 254 260 272 278 275 265 250 249 285 274 233 235 240 245 249 250 252 264 288 326 11 20 17 16 10 357 348 331 316 316 25 62 46 26 9 353 348 349 343 338 335 333 332 331 330 331 329 327 323 316 308 300 293 288 282 277 266 247 230 220 213 211 212 212 208 205 202 199 197 196 194 192 190 189 189 190 191 192 192 192 193 193 194
243 253 257 255 259 270 270 260 260 267 279 296 319 324 298 280 281 276 266 278 3 22 33 39 25 19 18 5 355 349 331 318 305 98 61 30 17 6 348 339 338 335 331 329 326 324 323 324 325 323 322 325 325 322 315 306 300 293 287 275 254 235 221 212 209 210 208 204 202 200 198 196 194 192 189 188 187 189 190 191 192 193 192 192 194 195
231 241 252 253 246 254 262 258 263 277 278 268 296 340 347 326 312 296 274 26 38 27 27 27 13 13 15 2 352 347 340 336 334 34 16 6 358 351 341 330 325 324 323 322 319 319 320 321 324 325 325 327 330 332 329 322 314 302 288 275 257 238 223 211 209 209 205 204 203 200 198 196 192 189 187 187 187 190 192 192 193 193 191 191 192 194
231 229 241 255 240 246 263 263 266 271 269 302 323 318 322 305 291 280 241 121 43 22 20 22 12 5 3 357 353 349 348 354 348 332 342 345 340 338 335 325 322 324 324 324 323 323 325 327 329 329 331 333 336 338 338 335 332 321 298 282 269 250 230 219 217 213 207 206 205 201 198 195 192 189 187 187 190 192 193 193 193 192 191 191 192 193
294 241 233 255 252 255 262 262 270 269 258 26 330 314 326 318 306 291 215 162 38 21 19 18 6 357 353 348 346 350 356 353 331 316 325 330 328 330 328 323 325 325 323 326 327 325 327 330 331 332 337 340 338 338 339 339 342 342 326 311 306 281 257 247 242 235 224 217 210 203 198 195 192 190 189 190 193 193 192 192 191 191 192 192 193 193
337 295 254 259 263 272 272 271 281 276 109 16 334 328 328 317 312 303 239 307 9 7 16 14 352 335 336 329 326 348 358 328 305 305 314 317 317 322 323 320 324 324 324 329 331 330 330 333 334 335 338 338 336 338 340 341 343 345 343 339 326 290 270 272 277 271 257 241 223 208 202 198 195 194 194 194 194 193 191 190 189 188 190 191 192 192
325 309 281 266 265 274 272 270 279 252 133 20 337 330 328 325 326 305 289 324 346 335 333 350 332 309 309 310 309 322 305 272 276 290 300 309 315 319 321 320 322 324 324 327 330 331 332 333 334 332 331 333 337 341 344 345 343 341 341 338 323 298 286 289 290 279 262 248 232 216 208 204 201 199 198 196 193 191 190 189 189 188 187 187 188 188
301 277 264 262 272 282 273 275 282 263 125 27 350 333 352 8 339 290 305 320 316 306 316 324 312 293 294 296 300 303 294 282 279 286 298 312 315 315 321 324 324 325 326 326 328 330 330 329 329 329 329 333 338 343 347 348 343 337 337 333 322 317 314 309 302 285 259 242 232 221 213 210 208 204 202 198 192 188 188 188 188 187 185 184 185 185
287 285 280 260 262 280 269 261 265 258 328 8 352 348 22 22 278 273 295 290 258 266 295 301 301 308 311 310 309 301 297 298 296 298 308 313 312 313 318 322 323 323 324 323 324 327 329 327 325 325 325 328 334 340 345 347 342 336 334 326 321 322 320 315 310 297 268 244 230 222 216 213 211 208 204 200 194 188 186 185 185 185 184 183 183 182
258 255 267 265 269 277 260 253 270 296 327 345 340 323 315 298 267 255 272 277 262 248 260 280 298 308 310 310 309 305 302 299 301 308 309 306 307 309 310 314 317 317 317 318 322 327 329 326 322 320 321 324 330 335 338 340 337 331 326 321 320 320 316 311 308 299 277 251 231 222 216 212 211 209 205 201 195 189 186 185 183 184 185 184 182 181
229 222 249 264 265 257 253 267 289 308 313 302 246 231 265 270 258 245 249 260 265 259 247 257 279 289 288 288 295 299 298 295 296 300 298 297 299 302 304 308 309 308 311 314 318 324 326 323 319 318 318 321 327 331 331 331 329 322 316 317 318 314 309 306 300 287 271 252 234 224 217 211 209 207 205 202 196 192 189 187 184 183 185 185 184 185
255 263 263 256 258 262 260 263 274 293 302 293 280 279 277 263 254 250 242 241 254 267 268 249 249 272 286 281 286 293 294 294 296 294 292 294 297 299 301 303 304 306 310 312 317 322 323 321 318 317 315 317 322 326 326 323 320 313 310 313 312 306 300 294 283 271 261 247 235 226 217 211 207 205 205 203 199 197 195 191 187 186 186 187 189 189
253 248 250 256 269 271 266 267 271 276 281 285 290 295 287 261 249 247 229 222 237 250 253 248 254 281 287 278 280 287 289 293 298 299 299 300 298 299 301 300 301 306 308 311 316 319 319 319 317 315 313 312 316 321 320 317 313 309 308 308 306 298 290 278 264 256 248 239 232 224 214 209 205 202 202 201 199 199 199 197 193 189 188 189 191 192
245 210 210 243 250 247 257 273 280 276 275 278 281 282 277 257 245 238 213 206 228 246 251 257 269 280 283 283 285 289 291 293 294 297 301 302 298 299 301 299 300 304 306 309 312 315 317 315 311 310 309 308 312 316 314 310 308 307 306 305 301 294 282 267 255 247 241 234 227 219 214 210 205 201 200 200 199 200 200 198 196 195 196 196 194 192
282 329 246 248 258 266 270 276 281 282 280 276 262 256 263 250 222 220 228 230 239 257 274 285 285 280 282 289 293 295 293 291 292 295 298 298 297 297 297 299 303 305 305 307 308 310 310 307 305 306 306 305 308 311 309 305 304 304 303 301 299 292 275 262 256 247 239 232 224 218 214 210 207 205 203 201 202 204 205 204 201 202 204 205 202 199
229 260 255 253 261 266 264 263 266 273 276 277 273 264 248 212 188 206 247 264 274 290 305 306 300 296 293 290 293 298 293 291 295 299 297 294 294 296 298 300 303 303 303 304 307 307 305 303 304 306 305 303 305 306 304 302 302 302 301 299 297 289 273 261 255 247 239 232 224 219 215 210 210 210 207 205 204 206 209 211 209 208 210 210 209 208
221 240 247 249 250 255 257 255 256 261 267 276 281 264 208 171 146 273 288 309 315 311 317 312 301 300 300 296 296 296 294 294 298 299 295 291 290 294 297 299 300 300 300 301 302 301 300 302 304 304 302 302 302 301 300 299 298 298 298 297 295 288 273 259 250 244 240 233 226 221 216 211 211 210 209 209 209 205 205 209 212 214 216 215 211 210